This demonstration page uses our WeatherBlox Daily Observations layout. Learn more.

Left ArrowRight Arrow

Hourly Observations for April 4, 2022

Temp ( °F °C ) Dew Point ( °F °C ) Humidity (%) Winds ( mph kmh ) Pressure ( in mb ) Visibility ( mi km ) Precip ( " mm )
3:56 am 03:56 Clear 35 1.7 27 -2.8 72 72 N 8 13 30.00 1016 10 16 0.00 0.00
4:56 am 04:56 Clear 30 -1.1 26 -3.3 85 85 NNE 7 11 30.00 1016 10 16 0.00 0.00
5:56 am 05:56 Clear 30 -1.1 27 -2.8 88 88 NNW 6 9 30.00 1016 10 16 0.00 0.00
6:56 am 06:56 Clear 28 -2.2 26 -3.3 92 92 N 6 9 30.00 1016 10 16 0.00 0.00
7:56 am 07:56 Sunny 26 -3.3 24 -4.4 92 92 Calm 30.03 1017 10 16 0.00 0.00
8:56 am 08:56 Sunny 33 0.6 29 -1.7 85 85 E 5 7 30.02 1017 10 16 0.00 0.00
9:56 am 09:56 Sunny 39 3.9 29 -1.7 67 67 SE 10 17 30.01 1016 10 16 0.00 0.00
10:56 am 10:56 Sunny 44 6.7 26 -3.3 49 49 S 10 17 30.02 1017 10 16 0.00 0.00
11:56 am 11:56 Sunny 49 9.4 26 -3.3 41 41 SSE 15 24 29.99 1016 10 16 0.00 0.00
12:56 pm 12:56 Sunny 53 11.7 26 -3.3 35 35 SSE 13 20 29.94 1014 10 16 0.00 0.00
1:56 pm 13:56 Sunny 58 14.4 25 -3.9 28 28 S 15 24 29.88 1012 10 16 0.00 0.00
2:56 pm 14:56 Sunny 61 16.1 23 -5 23 23 S 17 28 29.82 1010 10 16 0.00 0.00
3:56 pm 15:56 Sunny 63 17.2 22 -5.6 21 21 S 21 33 29.76 1008 10 16 0.00 0.00
4:56 pm 16:56 Sunny 65 18.3 20 -6.7 18 18 S 21 33 29.73 1007 10 16 0.00 0.00
5:56 pm 17:56 Sunny 64 17.8 21 -6.1 19 19 S 24 39 29.70 1006 10 16 0.00 0.00
6:56 pm 18:56 Sunny 62 16.7 23 -5 22 22 S 25 41 29.68 1005 10 16 0.00 0.00
7:56 pm 19:56 Sunny 57 13.9 23 -5 27 27 S 17 28 29.65 1004 10 16 0.00 0.00
8:56 pm 20:56 Clear 54 12.2 25 -3.9 33 33 S 18 30 29.65 1004 10 16 0.00 0.00
9:56 pm 21:56 Clear 52 11.1 26 -3.3 37 37 S 17 28 29.64 1004 10 16 0.00 0.00
10:56 pm 22:56 Clear 52 11.1 27 -2.8 38 38 S 22 35 29.61 1003 10 16 0.00 0.00
11:56 pm 23:56 Clear 51 10.6 28 -2.2 41 41 S 21 33 29.58 1002 10 16 0.00 0.00

Powered by AerisWeather